TimeMDT,TemperatureF,Dew PointF,Humidity,Sea Level PressureIn,VisibilityMPH,Wind Direction,Wind SpeedMPH,Gust SpeedMPH,PrecipitationIn,Events,Conditions,WindDirDegrees,DateUTC
12:52 AM,28.0,25.0,88,30.32,10.0,Calm,Calm,-,N/A,,Clear,0,2014-05-15 06:52:00
1:52 AM,27.0,25.0,92,30.30,10.0,Calm,Calm,-,N/A,,Clear,0,2014-05-15 07:52:00
2:52 AM,28.0,24.1,85,30.30,10.0,Calm,Calm,-,N/A,,Clear,0,2014-05-15 08:52:00
3:52 AM,28.0,24.1,85,30.30,10.0,WSW,4.6,-,N/A,,Clear,250,2014-05-15 09:52:00
4:52 AM,25.0,21.9,88,30.29,10.0,Calm,Calm,-,N/A,,Clear,0,2014-05-15 10:52:00
5:52 AM,23.0,19.9,88,30.30,10.0,Calm,Calm,-,N/A,,Clear,0,2014-05-15 11:52:00
6:52 AM,30.0,26.1,85,30.30,10.0,WNW,3.5,-,N/A,,Clear,290,2014-05-15 12:52:00
7:52 AM,37.9,32.0,79,30.30,10.0,Variable,3.5,-,N/A,,Clear,0,2014-05-15 13:52:00
9:52 AM,52.0,28.9,41,30.27,10.0,NW,6.9,-,N/A,,Clear,320,2014-05-15 15:52:00
10:52 AM,54.0,24.1,31,30.27,10.0,NNW,11.5,18.4,N/A,,Clear,330,2014-05-15 16:52:00
11:52 AM,57.0,25.0,29,30.26,10.0,North,13.8,17.3,N/A,,Clear,360,2014-05-15 17:52:00
1:52 PM,59.0,25.0,27,30.24,10.0,North,-9999.0,-,N/A,,Mostly Cloudy,0,2014-05-15 19:52:00
2:52 PM,57.9,26.1,30,30.22,10.0,North,5.8,-,N/A,,Mostly Cloudy,350,2014-05-15 20:52:00
3:52 PM,60.1,27.0,28,30.20,10.0,Variable,4.6,-,N/A,,Scattered Clouds,0,2014-05-15 21:52:00
4:52 PM,59.0,28.0,31,30.19,10.0,NW,9.2,-,N/A,,Clear,320,2014-05-15 22:52:00
5:52 PM,57.9,28.9,33,30.17,10.0,Variable,4.6,-,N/A,,Clear,0,2014-05-15 23:52:00
6:52 PM,57.0,28.0,33,30.14,10.0,Calm,Calm,-,N/A,,Clear,0,2014-05-16 00:52:00
7:52 PM,50.0,32.0,50,30.12,10.0,ESE,5.8,-,N/A,,Clear,110,2014-05-16 01:52:00
8:52 PM,44.1,35.1,71,30.12,10.0,East,5.8,-,N/A,,Clear,90,2014-05-16 02:52:00
9:52 PM,44.1,34.0,68,30.12,10.0,ENE,6.9,-,N/A,,Mostly Cloudy,70,2014-05-16 03:52:00
10:52 PM,46.9,33.1,59,30.09,10.0,Calm,Calm,-,N/A,,Overcast,0,2014-05-16 04:52:00